Katunayake, Sri Lanka

8:36 PM IST on September 26, 2016 (GMT +0530)
Bandaranaike International

Weather History for VCBI - February, 2013

Change the Weather History Date:

Saturday, February 2, 2013

  Actual Average Record
Temperature  
Mean Temperature 83 °F -  
Max Temperature 91 °F 87 °F 96 °F (2014)
Min Temperature 75 °F 72 °F 69 °F (2007)
Cooling Degree Days 18    
Growing Degree Days 33 (Base 50)    
Moisture  
Dew Point 71 °F    
Average Humidity 73    
Maximum Humidity 89    
Minimum Humidity 43    
Precipitation  
Precipitation 0.00 in - - ()
Sea Level Pressure  
Sea Level Pressure 29.86 in    
Wind  
Wind Speed 10 mph ()    
Max Wind Speed 16 mph    
Max Gust Speed -    
Visibility 6.1 miles    
Events      
Averages and records for this station are not official NWS values.
T = Trace of Precipitation, MM = Missing Value Source: Averaged Metar Reports

Daily Weather History Graph

Daily Weather History Graph

Search for Another Location

Airport or City:

Trip Planner

Search our weather history database for the weather conditions in past years. The results will help you decide how hot, cold, wet, or windy it might be!

Date:

Astronomy

Feb. 02, 2013 Rise Set
Actual Time 6:29 AM IST 6:19 PM IST
Civil Twilight 6:07 AM IST 6:40 PM IST
Nautical Twilight 5:42 AM IST 7:05 PM IST
Astronomical Twilight 5:17 AM IST 7:31 PM IST
Moon 11:28 PM IST (2/2) 10:47 AM IST (2/2)
Length of Visible Light 12h 33m
Length of Day
11h 49m
Waning Gibbous, 64% of the Moon is Illuminated
Feb 2
Waning Gibbous
Feb 3
Last Quarter
Feb 10
New
Feb 18
First Quarter
Feb 26
Full

Hourly Weather History & Observations

Time (IST) Temp. Heat Index Dew Point Humidity Pressure Visibility Wind Dir Wind Speed Gust Speed Precip Events Conditions
12:40 AM 77.0 °F - 69.8 °F 78% 29.89 in - NNE 10.4 mph - N/A   Clear
1:40 AM 77.0 °F - 69.8 °F 78% 29.89 in - NNE 10.4 mph - N/A   Clear
2:40 AM 77.0 °F - 69.8 °F 78% 29.86 in 6.2 mi NNE 12.7 mph - N/A   Mostly Cloudy
3:40 AM 75.2 °F - 71.6 °F 89% 29.86 in 6.2 mi NNE 11.5 mph - N/A   Mostly Cloudy
4:40 AM 75.2 °F - 71.6 °F 89% 29.86 in 5.6 mi NNE 10.4 mph - N/A   Partly Cloudy
5:40 AM 75.2 °F - 71.6 °F 89% 29.89 in 5.6 mi NNE 8.1 mph - N/A   Partly Cloudy
7:40 AM 75.2 °F - 71.6 °F 89% 29.92 in 5.6 mi NNE 8.1 mph - N/A   Clear
8:40 AM 78.8 °F - 71.6 °F 78% 29.95 in 5.6 mi NNE 12.7 mph - N/A   Partly Cloudy
9:40 AM 82.4 °F 87.2 °F 71.6 °F 70% 29.95 in 6.2 mi NE 16.1 mph - N/A   Partly Cloudy
10:40 AM 84.2 °F 88.4 °F 69.8 °F 62% 29.92 in 6.2 mi NNE 15.0 mph - N/A   Scattered Clouds
12:40 PM 89.6 °F 93.4 °F 68.0 °F 49% 29.86 in 6.2 mi NE 15.0 mph - N/A   Scattered Clouds
2:40 PM 91.4 °F 94.0 °F 66.2 °F 43% 29.77 in 6.2 mi NNE 11.5 mph - N/A   Partly Cloudy
3:40 PM 87.8 °F 95.6 °F 73.4 °F 62% 29.77 in 6.2 mi NNW 9.2 mph - N/A   Partly Cloudy
4:40 PM 84.2 °F 90.9 °F 73.4 °F 70% 29.77 in 6.2 mi NNW 11.5 mph - N/A   Partly Cloudy
5:40 PM 84.2 °F 90.9 °F 73.4 °F 70% 29.80 in 6.2 mi NNW 10.4 mph - N/A   Partly Cloudy
6:40 PM 82.4 °F 88.2 °F 73.4 °F 74% 29.80 in 6.2 mi North 9.2 mph - N/A   Partly Cloudy
7:40 PM 80.6 °F 84.6 °F 71.6 °F 74% 29.83 in 6.2 mi North 6.9 mph - N/A   Partly Cloudy
8:40 PM 80.6 °F 84.6 °F 71.6 °F 74% 29.86 in 6.2 mi NNE 6.9 mph - N/A   Partly Cloudy
9:40 PM 80.6 °F 83.9 °F 69.8 °F 70% 29.89 in 6.2 mi NNE 10.4 mph - N/A   Partly Cloudy
10:40 PM 78.8 °F - 69.8 °F 74% 29.89 in 6.2 mi NNE 13.8 mph - N/A   Scattered Clouds